Voltar ao catálogo

COSMOS 1275 DEB

AtivoPO
NORAD 17640·DEBRIS·🇷🇺 Russia

Lançado Jun 4, 1981 de Plesetsk Cosmodrome

Loading…

Próximas Passagens (próximas 24 horas)

TLE

AtualizadoSource: Space-Track

Época: Sep 12, 2026, 00:29 UTC

1 17640U 81053LK  26255.02015210  .00001665  00000-0  57291-3 0  9991
2 17640  82.9090 270.6905 0018277 263.9883  95.9223 14.35434015823633

Acompanhe COSMOS 1275 DEB em tempo real com AllMySat

Download on the App Store